Wind_Speed
11 11 11 10 10 10 10 10 10 10 10 9 9 8 8 7 7 7 7 6 6 5 5 4 4 3 3 3 2 2 2 1 1 1 1 1 2 2 2 2 3 3 4
13 13 12 12 12 11 11 11 11 11 11 11 10 10 9 9 8 8 8 7 7 7 6 5 5 4 4 4 3 3 3 3 3 2 2 3 3 3 3 3 4 4 4
15 14 14 14 13 13 13 13 13 13 13 13 12 12 11 10 10 10 9 9 9 8 8 7 6 6 5 5 5 4 4 4 4 4 4 4 4 4 4 4 5 5 5
17 16 16 15 15 15 14 14 14 14 14 14 14 13 13 13 12 12 11 11 10 10 9 9 8 7 7 7 7 6 6 6 6 6 6 6 6 6 6 6 6 6 6
18 18 18 18 17 17 16 16 16 16 16 15 15 15 15 15 14 14 13 13 12 12 12 11 10 10 9 9 9 8 8 8 8 8 8 8 8 8 8 8 8 7 7
20 20 20 20 19 19 19 18 18 18 18 17 17 17 17 17 16 16 15 15 14 14 14 13 12 12 12 11 11 11 11 10 10 10 9 10 9 9 9 10 9 9 9
22 22 22 22 21 21 21 20 20 20 20 19 19 19 19 18 18 18 18 17 16 16 16 15 15 14 14 14 13 13 13 13 12 11 11 11 11 11 11 11 11 11 11
24 24 24 23 23 23 23 22 22 21 21 21 21 21 21 20 20 20 20 19 19 19 18 18 18 17 16 16 16 15 15 14 14 13 13 13 13 13 13 13 13 13 13
26 25 25 25 25 25 24 24 24 24 23 23 23 23 23 22 22 22 22 21 21 21 21 20 20 20 19 18 18 17 17 16 16 16 15 15 14 15 15 15 14 15 15
28 27 27 26 26 26 26 26 26 26 25 25 25 25 25 25 24 24 24 24 23 23 23 23 23 22 22 21 20 19 18 18 18 18 17 17 16 16 16 16 16 16 16
29 29 29 28 28 28 28 28 28 28 28 27 27 27 27 27 27 27 27 26 26 25 25 25 25 24 24 23 22 21 20 20 20 20 19 18 18 18 18 17 18 18 18
31 30 30 30 30 30 30 30 30 29 30 29 29 29 29 29 29 29 29 28 28 28 27 27 27 26 26 25 25 24 23 22 22 22 22 21 20 20 20 20 20 20 20
33 32 32 32 32 32 32 32 32 32 31 31 31 31 31 31 32 32 31 31 30 30 29 29 29 29 28 28 27 26 25 25 24 24 23 23 23 23 22 22 22 22 22
34 34 34 33 33 34 34 34 33 34 34 34 33 33 33 33 33 33 33 33 32 31 30 30 30 30 30 30 29 28 27 27 26 26 26 25 25 24 24 24 24 24 24
37 36 36 36 36 36 35 36 35 35 35 36 35 35 35 34 33 33 33 34 33 32 32 32 31 31 32 32 31 30 29 28 28 28 28 28 27 27 27 26 26 26 26
39 38 37 37 38 38 38 38 37 37 37 37 37 37 36 36 36 35 35 35 35 34 34 34 33 34 34 33 33 32 31 31 31 30 30 30 29 29 29 28 28 28 28
40 40 39 39 39 40 40 40 39 39 39 39 39 39 39 39 39 38 38 37 36 36 36 36 36 36 36 36 35 35 34 34 33 33 32 32 31 31 31 31 31 31 31
41 41 41 41 41 41 41 41 42 41 41 41 41 41 41 41 39 39 40 40 39 38 38 38 38 38 38 37 37 36 36 35 35 34 34 33 34 33 33 33 33 33 33
42 42 41 42 41 41 42 42 42 43 43 43 43 43 42 42 42 41 42 41 41 41 40 40 40 40 40 39 38 38 37 37 37 36 36 36 35 35 35 35 35 35 34
43 43 43 43 42 42 43 44 43 43 43 44 44 44 44 43 44 44 43 42 43 43 43 42 42 41 41 41 41 40 40 39 39 39 39 38 37 37 36 36 36 36 36
45 44 44 44 43 43 43 43 43 43 43 44 44 44 45 45 45 45 44 44 44 44 44 44 43 43 42 42 42 41 41 41 41 41 40 40 39 39 38 38 38 37 37
45 45 45 44 43 43 43 43 43 43 43 43 43 44 45 46 46 46 46 46 46 46 46 46 45 44 43 43 43 43 42 42 42 42 42 41 41 41 41 40 40 40 40
45 45 45 44 44 44 44 44 44 44 44 44 44 45 45 46 47 47 47 47 47 47 47 47 47 46 46 46 46 46 45 43 42 43 43 43 43 42 42 42 41 41 41
45 45 45 45 45 45 46 46 46 45 46 46 46 47 48 48 48 48 48 49 49 48 48 49 48 48 47 47 48 48 48 46 44 44 44 44 44 43 43 43 43 43 43
44 44 44 45 45 46 46 47 47 47 47 48 48 47 48 49 50 50 50 50 50 50 50 50 49 50 50 49 48 49 48 48 47 46 45 45 45 45 45 45 45 45 44
43 43 44 44 45 46 46 47 48 48 47 49 49 49 49 50 50 50 51 52 52 52 52 52 52 52 52 52 51 50 50 50 49 49 47 47 47 46 46 46 46 46 46
Wind_Direction
239 241 243 245 245 244 242 240 239 236 233 230 227 227 225 223 223 222 222 224 225 224 226 226 223 224 222 220 221 220 225 230 229 241 258 275 284 296 311 321 331 341 347
243 243 245 246 247 246 244 241 240 240 238 235 232 231 231 230 231 230 229 232 231 230 233 235 235 236 232 230 231 238 245 252 252 254 263 270 277 284 292 299 306 314 321
247 246 245 246 247 247 245 243 242 244 245 241 238 236 235 235 237 237 237 240 238 238 238 240 243 243 242 240 240 245 252 256 258 262 268 270 272 278 284 290 295 301 308
247 247 247 247 247 249 249 247 246 246 247 246 244 243 240 240 242 243 242 243 243 243 244 246 247 247 247 248 247 249 256 260 264 268 271 271 273 274 279 285 289 293 299
247 247 248 248 248 249 250 249 248 247 247 248 249 248 245 244 244 244 244 243 244 245 246 247 248 251 253 253 252 253 258 265 268 270 273 274 275 276 277 281 285 290 296
248 248 248 248 248 249 249 250 249 249 248 249 250 250 249 248 246 245 245 245 246 247 248 248 249 252 255 256 256 257 259 265 269 271 274 275 276 278 278 279 282 285 291
248 249 249 249 249 250 250 250 251 251 252 251 251 251 250 250 248 247 247 248 248 249 251 251 253 254 255 256 258 260 262 265 269 272 273 274 276 278 277 277 278 282 286
249 249 251 251 251 251 251 252 253 253 252 253 252 251 251 251 250 249 248 248 249 250 251 252 253 255 256 258 258 261 262 265 268 272 274 275 276 277 277 277 278 281 284
250 250 251 251 251 251 252 253 253 254 253 252 253 252 252 252 252 251 250 250 250 251 252 253 254 256 257 259 260 262 262 265 269 272 274 275 276 277 277 277 278 281 283
250 250 251 252 252 252 252 253 254 254 254 253 253 254 254 252 253 252 252 252 253 253 254 254 254 257 257 259 261 263 264 264 267 270 272 274 277 278 279 278 279 280 282
251 251 252 252 253 253 254 254 255 254 254 254 254 254 254 253 253 253 253 253 254 255 255 255 255 256 258 259 260 262 264 266 266 267 269 271 274 277 278 278 279 279 280
251 252 252 253 254 255 255 255 255 255 254 254 254 255 254 253 253 253 253 253 254 255 256 257 256 256 257 258 260 262 263 265 265 265 267 269 271 274 276 277 278 278 280
252 253 253 254 255 256 256 256 255 255 254 254 254 254 255 254 254 253 253 253 254 254 255 256 257 258 258 259 260 261 263 263 264 265 266 267 270 273 275 276 277 277 278
253 253 254 254 255 256 256 255 255 255 255 255 255 255 255 255 255 254 255 254 254 254 255 256 257 258 258 259 260 261 263 263 263 265 266 267 269 271 274 275 275 276 277
253 254 255 255 256 256 256 255 255 256 256 255 255 256 256 256 255 255 256 256 256 256 256 258 259 259 259 259 260 261 262 262 263 264 265 267 269 270 272 274 274 274 275
254 254 255 256 256 257 257 257 257 257 257 256 256 256 255 255 255 256 256 257 258 258 258 259 260 260 260 259 259 261 261 261 262 263 264 266 268 270 271 272 273 273 275
254 255 256 258 258 258 259 259 259 259 258 256 255 256 256 255 256 256 257 257 258 258 258 259 260 260 261 260 260 261 261 261 262 263 264 266 267 269 270 271 272 273 274
255 256 257 259 260 260 260 260 260 260 259 257 255 255 255 255 256 256 257 258 258 258 259 261 261 261 263 263 262 261 260 261 262 263 264 266 267 269 270 270 272 273 274
256 256 258 259 260 261 260 259 260 260 259 257 256 255 255 255 256 257 258 258 258 258 260 261 261 262 263 264 265 263 262 261 262 263 264 266 268 269 270 271 272 273 274
257 257 257 258 259 260 261 260 260 260 259 258 256 255 254 254 256 257 258 258 259 259 259 260 261 263 263 264 265 265 264 262 263 264 264 266 267 269 270 272 272 272 273
258 258 258 258 259 259 260 260 259 259 259 257 256 255 255 255 256 256 257 258 259 259 259 261 261 261 263 264 264 264 264 264 263 264 264 266 267 267 269 271 272 272 272
258 258 258 258 258 258 259 259 259 259 257 256 255 254 255 255 257 257 257 258 259 259 259 260 262 262 262 264 264 264 264 264 264 264 265 265 266 267 268 270 271 272 272
258 258 258 257 258 258 258 258 258 258 258 256 256 256 256 256 257 257 258 258 259 260 259 259 260 262 263 262 262 263 264 264 265 264 264 264 265 266 268 270 271 271 272
258 257 257 257 258 258 258 258 258 259 259 258 258 258 257 257 257 257 258 258 259 260 260 260 260 261 262 263 262 262 263 264 265 264 264 264 265 266 267 268 269 271 273
258 257 257 257 258 259 258 259 258 259 260 259 259 258 258 258 258 259 259 259 259 259 260 260 260 261 263 263 263 263 263 263 264 265 264 264 265 266 267 268 269 271 271
259 258 258 258 259 259 259 259 259 259 259 259 259 258 258 258 259 260 260 260 260 260 261 260 261 262 262 262 263 263 262 262 263 264 264 265 265 266 267 269 269 270 271
Height
5846 5846 5847 5848 5849 5850 5851 5851 5852 5853 5854 5854 5855 5856 5856 5857 5858 5859 5859 5860 5861 5861 5862 5862 5863 5863 5863 5863 5864 5864 5865 5865 5865 5865 5866 5866 5866 5867 5867 5867 5867 5866 5866
5844 5845 5846 5846 5847 5848 5849 5850 5851 5851 5852 5853 5854 5855 5855 5856 5857 5858 5859 5859 5860 5860 5861 5862 5862 5862 5863 5863 5863 5864 5864 5864 5865 5865 5865 5866 5866 5866 5866 5866 5866 5866 5866
5841 5842 5843 5844 5845 5846 5847 5848 5849 5850 5850 5851 5852 5853 5854 5855 5856 5856 5857 5858 5859 5859 5860 5861 5861 5862 5862 5862 5862 5863 5863 5864 5864 5864 5865 5865 5865 5865 5865 5865 5865 5865 5865
5839 5840 5841 5842 5843 5844 5845 5846 5847 5847 5848 5849 5850 5851 5852 5853 5854 5855 5856 5857 5857 5858 5859 5859 5860 5860 5861 5861 5861 5862 5862 5863 5863 5863 5863 5864 5864 5864 5864 5864 5864 5864 5864
5836 5837 5838 5839 5840 5841 5842 5843 5844 5845 5846 5847 5848 5849 5850 5851 5852 5853 5854 5855 5856 5856 5857 5858 5858 5859 5859 5860 5860 5861 5861 5861 5862 5862 5862 5862 5862 5862 5862 5862 5862 5862 5862
5832 5833 5835 5836 5837 5838 5839 5840 5841 5842 5843 5844 5845 5846 5848 5848 5849 5850 5851 5853 5853 5854 5855 5855 5856 5857 5857 5858 5858 5859 5859 5860 5860 5860 5860 5861 5861 5861 5861 5861 5861 5860 5860
5828 5830 5831 5832 5833 5835 5836 5837 5838 5839 5840 5841 5842 5843 5845 5846 5847 5848 5849 5850 5851 5852 5852 5853 5854 5854 5855 5855 5856 5856 5857 5858 5858 5858 5858 5858 5859 5859 5859 5859 5859 5859 5858
5824 5825 5826 5828 5829 5831 5832 5833 5834 5835 5836 5837 5838 5840 5841 5842 5843 5844 5846 5847 5848 5849 5849 5850 5851 5851 5852 5852 5853 5854 5854 5855 5855 5856 5856 5856 5856 5856 5856 5856 5856 5856 5856
5819 5821 5822 5823 5825 5826 5828 5829 5830 5831 5832 5833 5834 5836 5837 5838 5840 5841 5842 5843 5844 5845 5846 5847 5847 5848 5848 5849 5850 5851 5851 5852 5852 5853 5853 5853 5853 5853 5853 5853 5853 5853 5853
5814 5816 5817 5818 5820 5822 5823 5824 5825 5826 5828 5829 5830 5831 5833 5834 5835 5836 5838 5839 5840 5841 5842 5843 5843 5844 5845 5846 5846 5847 5848 5849 5849 5849 5850 5850 5850 5850 5850 5850 5850 5850 5850
5808 5810 5812 5813 5815 5816 5818 5819 5820 5821 5822 5823 5825 5826 5828 5829 5830 5831 5833 5834 5835 5836 5837 5838 5839 5840 5841 5842 5842 5843 5844 5845 5845 5846 5846 5846 5846 5846 5846 5846 5847 5846 5846
5802 5804 5806 5807 5809 5810 5812 5813 5814 5816 5817 5818 5819 5820 5822 5823 5825 5826 5827 5828 5830 5831 5832 5833 5834 5835 5836 5837 5838 5839 5840 5840 5841 5842 5842 5842 5842 5842 5842 5842 5843 5842 5842
5796 5798 5799 5801 5802 5804 5805 5807 5808 5809 5810 5811 5813 5814 5816 5817 5819 5820 5821 5823 5824 5825 5826 5828 5829 5830 5831 5832 5833 5834 5834 5835 5836 5837 5837 5837 5838 5838 5838 5838 5838 5838 5838
5789 5791 5792 5794 5795 5797 5798 5799 5801 5802 5804 5805 5806 5807 5809 5810 5812 5813 5815 5816 5817 5819 5820 5822 5823 5824 5825 5826 5827 5828 5829 5830 5830 5831 5832 5832 5833 5833 5833 5833 5833 5833 5833
5781 5783 5785 5786 5788 5789 5790 5792 5793 5795 5796 5798 5799 5800 5802 5803 5805 5806 5808 5809 5811 5812 5814 5815 5817 5818 5819 5820 5821 5822 5823 5824 5824 5825 5826 5826 5827 5827 5827 5827 5828 5828 5828
5773 5775 5777 5778 5780 5781 5783 5784 5785 5787 5788 5790 5791 5793 5794 5795 5797 5799 5801 5802 5804 5805 5807 5808 5810 5811 5812 5813 5814 5815 5816 5817 5818 5819 5819 5820 5821 5821 5821 5821 5822 5822 5822
5765 5767 5768 5770 5771 5773 5774 5775 5777 5778 5779 5781 5782 5784 5785 5787 5789 5791 5793 5794 5796 5798 5799 5801 5802 5803 5804 5805 5807 5808 5809 5809 5810 5812 5812 5813 5814 5814 5815 5815 5815 5815 5815
5756 5758 5759 5761 5762 5764 5765 5766 5767 5768 5769 5771 5772 5774 5776 5778 5780 5782 5784 5786 5788 5789 5791 5792 5794 5795 5797 5798 5799 5800 5801 5802 5803 5804 5805 5805 5806 5807 5807 5807 5808 5808 5808
5746 5748 5750 5751 5753 5754 5755 5756 5757 5758 5759 5760 5762 5764 5767 5769 5771 5773 5775 5777 5779 5781 5782 5783 5785 5787 5788 5789 5790 5791 5792 5793 5794 5795 5796 5797 5798 5799 5799 5799 5800 5800 5800
5736 5738 5740 5741 5743 5744 5745 5746 5746 5747 5748 5749 5751 5754 5757 5759 5761 5763 5765 5768 5770 5771 5773 5774 5776 5777 5779 5780 5781 5782 5783 5784 5785 5786 5787 5788 5789 5790 5791 5791 5791 5791 5791
5726 5728 5729 5731 5732 5733 5734 5735 5736 5737 5738 5739 5741 5744 5746 5749 5751 5753 5755 5757 5759 5761 5763 5765 5766 5768 5769 5770 5772 5773 5774 5775 5776 5777 5778 5779 5780 5781 5781 5782 5782 5782 5782
5715 5717 5719 5720 5721 5723 5724 5725 5726 5727 5728 5730 5731 5734 5736 5738 5740 5742 5744 5747 5749 5751 5753 5754 5756 5757 5759 5760 5761 5762 5764 5766 5766 5768 5768 5769 5770 5771 5772 5772 5773 5773 5773
5704 5706 5707 5709 5710 5712 5713 5714 5716 5717 5719 5720 5722 5724 5726 5728 5730 5732 5734 5736 5738 5740 5741 5743 5745 5746 5748 5749 5750 5751 5753 5755 5756 5758 5758 5759 5760 5761 5762 5762 5763 5763 5763
5692 5694 5696 5697 5699 5700 5702 5703 5705 5707 5708 5710 5711 5713 5715 5716 5718 5721 5723 5725 5727 5728 5730 5731 5733 5735 5736 5738 5739 5740 5742 5743 5745 5747 5748 5749 5750 5751 5751 5752 5752 5752 5753
5681 5682 5684 5685 5687 5689 5690 5691 5693 5695 5697 5698 5700 5701 5703 5705 5707 5709 5711 5713 5715 5716 5718 5719 5721 5723 5724 5726 5727 5728 5730 5731 5733 5734 5737 5738 5739 5740 5740 5741 5741 5742 5742
5669 5671 5673 5674 5675 5677 5678 5679 5681 5683 5684 5686 5688 5690 5692 5693 5695 5697 5699 5700 5702 5704 5705 5707 5708 5710 5712 5713 5715 5716 5718 5719 5721 5722 5724 5726 5728 5729 5729 5729 5730 5730 5731